Tracking 31027 objects as of 19-Jul-2025
HD Live streaming from Space Station
objects crossing your sky now

STARLINK-31976

Track STARLINK-31976 now!
10-day predictions
STARLINK-31976 is classified as:


NORAD ID: 59887
Int'l Code: 2024-100C
Perigee: 489.0 km
Apogee: 491.3 km
Inclination: 43.0 °
Period: 94.3 minutes
Semi major axis: 6861 km
RCS: Unknown
Launch date: May 28, 2024
Source: United States (US)
Launch site: AIR FORCE EASTERN TEST RANGE (AFETR)
Your satellite tracking list
FENGYUN 1C DEB
Track 1 satellite(s)




NASA's NSSDC Master Catalog

Two Line Element Set (TLE):
1 59887U 24100C   25199.49217568  .00001769  00000-0  73793-4 0  9998
2 59887  43.0007  11.9502 0001627 263.2718  96.7949 15.27588102 65291
Source of the keplerian elements: AFSPC